#datint,netname,site,siteID,timestamp,IntT,BattV,AirT2,AirT,AirT_Avg,AirT_Max,AirT_Min,RH_Avg,RH_Max,RH_Min,EA_Avg,Td_Avg,Td_Max,Td_Min,WindS_Smp,WindS_Avg,WindD_Avg,WindD_SD,WindS_Max,ETo,ETr,SoilT4,SoilT8,SoilVWC8,SolarW_Avg,wetstate_Avg,wetT_Avg,Precip_accum,Precip_WPG,Precip_TB
15min,AgWx,beryljct,423,18DEC2020:00:00:00,29.8,12.76,30.2,29.5,29.8,31.3,29.2,90,92,88,0.510,27.3,28.5,26.8,2.981,2.7,344,9.7,3.7,-0.00011,-0.00014,32.0,33.3,9,0,0,.,6.04,0.00,0.00
15min,AgWx,beryljct,423,18DEC2020:00:15:00,30.4,12.76,30.5,30.3,30.2,30.6,29.5,93,93,92,0.526,28.3,28.8,27.6,5.283,4.3,321,12,5.9,-0.00009,-0.00010,31.9,33.4,8,0,0,.,6.04,0.00,0.00
15min,AgWx,beryljct,423,18DEC2020:00:30:00,30.9,12.76,29.9,29.5,29.9,30.3,29.4,93,94,92,0.521,28.1,28.3,27.9,6.905,6.2,325,12,8.1,-0.00006,-0.00007,31.8,33.4,8,0,0,.,6.04,0.00,0.00
15min,AgWx,beryljct,423,18DEC2020:00:45:00,31.1,12.75,30.0,29.8,29.8,30.1,29.5,95,95,94,0.532,28.5,28.9,28.1,3.069,4.1,293,7.6,6.5,-0.00010,-0.00011,31.7,33.4,8,0,0,.,6.05,0.00,0.00
15min,AgWx,beryljct,423,18DEC2020:01:00:00,31.2,12.74,30.2,30.1,30.1,30.7,29.8,95,96,93,0.526,28.8,29.4,28.3,3.464,2.9,308,30,4.1,-0.00012,-0.00015,31.6,33.4,9,0,0,.,6.05,0.00,0.00
15min,AgWx,beryljct,423,18DEC2020:01:15:00,31.3,12.74,30.2,30.0,30.0,30.2,29.8,94,94,93,0.529,28.4,28.7,28.1,4.231,3.4,348,11,4.4,-0.00011,-0.00013,31.6,33.4,8,0,0,.,6.04,0.00,0.00
15min,AgWx,beryljct,423,18DEC2020:01:30:00,31.4,12.73,30.1,29.9,29.9,30.0,29.8,95,95,94,0.530,28.5,28.7,28.2,1.82,4.1,317,14,5.6,-0.00010,-0.00011,31.6,33.4,8,0,0,.,6.04,0.00,0.00
15min,AgWx,beryljct,423,18DEC2020:01:45:00,31.3,12.72,27.9,27.7,29.1,30.2,27.7,94,95,93,0.486,27.6,29.0,26.4,2.324,2.3,70,28,4.1,-0.00013,-0.00016,31.5,33.4,8,0,0,.,6.05,0.00,0.00
15min,AgWx,beryljct,423,18DEC2020:02:00:00,31.0,12.71,28.0,27.6,27.5,27.7,27.4,96,96,95,0.488,26.4,26.6,26.3,0.504,1.2,69,3.6,3.3,-0.00016,-0.00022,31.5,33.4,8,0,0,.,6.05,0.00,0.00
15min,AgWx,beryljct,423,18DEC2020:02:15:00,30.6,12.71,29.3,28.6,27.9,28.7,27.5,96,96,95,0.510,26.8,27.7,26.4,1.513,1.4,261,33,2.8,-0.00016,-0.00021,31.5,33.4,8,0,0,.,6.05,0.00,0.00
15min,AgWx,beryljct,423,18DEC2020:02:30:00,30.5,12.7,30.4,29.7,28.9,29.7,28.4,96,96,95,0.532,27.8,28.6,27.3,2.872,2.4,338,23,3.3,-0.00013,-0.00016,31.5,33.4,8,0,0,.,6.05,0.00,0.00
15min,AgWx,beryljct,423,18DEC2020:02:45:00,30.6,12.69,28.3,28.1,29.5,30.5,28.0,94,96,93,0.488,28.0,29.2,26.5,3.749,3.3,341,18,4.1,-0.00011,-0.00013,31.5,33.4,9,0,0,.,6.05,0.00,0.00
15min,AgWx,beryljct,423,18DEC2020:03:00:00,30.5,12.68,28.9,28.5,28.2,28.6,28.0,96,96,94,0.510,27.1,27.6,26.5,1.666,1.8,319,9.1,4.2,-0.00014,-0.00019,31.5,33.4,8,0,0,.,6.05,0.00,0.00
15min,AgWx,beryljct,423,18DEC2020:03:15:00,30.7,12.66,31.0,30.5,29.8,30.6,28.5,96,97,94,0.541,28.7,29.4,27.5,1.973,3.3,319,20,5.5,-0.00012,-0.00014,31.4,33.4,8,0,0,.,6.05,0.00,0.00
15min,AgWx,beryljct,423,18DEC2020:03:30:00,31.0,12.66,31.4,30.8,30.9,31.1,30.5,93,94,92,0.541,29.2,29.6,28.9,3.42,2.9,1.1,13,4.5,-0.00012,-0.00015,31.4,33.4,8,0,0,.,6.05,0.00,0.00
15min,AgWx,beryljct,423,18DEC2020:03:45:00,31.2,12.65,30.5,30.2,30.3,30.9,30.0,93,94,93,0.534,28.6,29.1,28.4,2.894,2.3,350,7.4,3.5,-0.00013,-0.00016,31.4,33.4,8,0,0,.,6.05,0.00,0.00
15min,AgWx,beryljct,423,18DEC2020:04:00:00,31.1,12.64,29.8,29.6,30.0,30.4,29.6,94,94,94,0.520,28.5,29.0,28.1,0,1.6,314,18,3.8,-0.00015,-0.00020,31.4,33.4,8,0,0,.,6.05,0.00,0.00
15min,AgWx,beryljct,423,18DEC2020:04:15:00,31.0,12.64,30.3,30.0,29.8,30.1,29.5,95,95,94,0.533,28.4,28.8,28.0,1.206,1.4,340,24,2.9,-0.00016,-0.00022,31.4,33.4,8,0,0,.,6.04,0.00,0.00
15min,AgWx,beryljct,423,18DEC2020:04:30:00,30.9,12.63,30.1,29.9,29.9,30.2,29.6,94,95,93,0.519,28.4,28.7,27.9,5.765,3.8,32,23,7.4,-0.00010,-0.00012,31.4,33.3,8,0,0,.,6.05,0.00,0.00
15min,AgWx,beryljct,423,18DEC2020:04:45:00,30.6,12.61,29.1,28.7,29.3,29.9,28.6,92,93,92,0.488,27.2,28.0,26.4,5.174,4.9,42,8.9,7.4,-0.00007,-0.00008,31.4,33.4,8,0,0,.,6.05,0.00,0.00
15min,AgWx,beryljct,423,18DEC2020:05:00:00,30.1,12.61,29.2,28.7,28.6,28.8,28.5,91,92,90,0.482,26.4,26.6,26.2,5.722,5.6,39,6.8,7.7,-0.00006,-0.00006,31.4,33.4,8,0,0,.,6.05,0.00,0.00
15min,AgWx,beryljct,423,18DEC2020:05:15:00,30.0,12.59,29.7,29.2,29.1,29.4,28.8,90,90,89,0.484,26.5,26.7,26.2,7.848,6.9,46,8.6,9.6,-0.00004,-0.00004,31.3,33.3,8,0,0,.,6.05,0.00,0.00
15min,AgWx,beryljct,423,18DEC2020:05:30:00,29.9,12.59,29.3,28.8,28.8,29.3,28.6,89,89,88,0.476,25.9,26.4,25.7,8.51,7.3,54,7.2,10.0,-0.00003,-0.00003,31.3,33.3,8,0,0,.,6.05,0.00,0.00
15min,AgWx,beryljct,423,18DEC2020:05:45:00,30.0,12.59,30.0,29.5,29.2,29.5,28.8,88,89,88,0.490,26.2,26.6,25.8,6.686,7.1,54,10,10.8,-0.00003,-0.00003,31.2,33.3,8,0,0,.,6.05,0.00,0.00
15min,AgWx,beryljct,423,18DEC2020:06:00:00,30.3,12.57,30.3,30.2,30.0,30.2,29.6,87,89,85,0.484,26.5,26.8,26.3,10.19,12.0,48,8.3,15.2,0.00001,0.00002,31.2,33.3,8,0,0,.,6.05,0.00,0.00
15min,AgWx,beryljct,423,18DEC2020:06:15:00,30.6,12.57,30.1,29.7,29.8,30.1,29.7,86,86,85,0.476,26.1,26.3,25.9,13.72,11.8,55,8.4,14.7,0.00002,0.00003,31.2,33.3,8,0,0,.,6.05,0.00,0.00
15min,AgWx,beryljct,423,18DEC2020:06:30:00,30.8,12.56,29.6,29.2,29.4,29.7,29.1,86,87,86,0.472,25.8,26.0,25.6,12.71,11.5,51,7.5,15.3,0.00002,0.00002,31.1,33.3,8,0,0,.,6.05,0.00,0.00
15min,AgWx,beryljct,423,18DEC2020:06:45:00,30.7,12.56,29.4,28.9,29.1,29.2,28.9,87,87,86,0.470,25.7,25.8,25.6,11.09,11.0,48,6.8,15.4,0.00001,0.00002,31.1,33.3,8,0,0,.,6.05,0.00,0.00
15min,AgWx,beryljct,423,18DEC2020:07:00:00,30.5,12.56,29.0,28.7,28.8,29.1,28.6,87,88,87,0.466,25.5,25.7,25.4,7.256,9.8,47,9.6,13.6,0.00014,0.00025,31.1,33.3,9,0,0,.,6.05,0.00,0.00
15min,AgWx,beryljct,423,18DEC2020:07:15:00,30.4,12.55,29.3,28.9,28.9,29.0,28.7,86,88,85,0.461,25.3,25.5,25.0,8.55,7.4,26,16,12.1,0.00013,0.00022,31.1,33.3,8,0,0,.,6.05,0.00,0.00
15min,AgWx,beryljct,423,18DEC2020:07:30:00,30.3,12.55,29.1,28.8,28.8,29.0,28.7,86,86,85,0.459,25.1,25.2,25.0,8.59,7.7,17,10,11.2,0.00013,0.00023,31.1,33.3,8,0,0,.,6.05,0.00,0.00
15min,AgWx,beryljct,423,18DEC2020:07:45:00,30.1,12.55,29.1,28.8,28.8,29.0,28.6,85,86,85,0.459,25.0,25.1,24.9,7.388,9.6,35,8.0,12.7,0.00016,0.00028,31.1,33.3,8,2,0,.,6.05,0.00,0.00
15min,AgWx,beryljct,423,18DEC2020:08:00:00,30.1,12.56,29.7,29.2,29.0,29.2,28.8,84,86,83,0.453,24.9,25.0,24.7,8.2,8.4,31,6.7,10.9,0.00018,0.00030,31.1,33.3,9,9,0,.,6.05,0.00,0.00
15min,AgWx,beryljct,423,18DEC2020:08:15:00,30.3,12.59,29.9,29.4,29.4,29.6,29.2,82,83,81,0.448,24.5,24.7,24.3,8.18,8.5,34,7.3,10.8,0.00025,0.00038,31.1,33.3,8,21,0,.,6.05,0.00,0.00
15min,AgWx,beryljct,423,18DEC2020:08:30:00,30.5,13.1,30.1,29.6,29.5,29.6,29.3,82,82,81,0.452,24.6,24.8,24.4,7.958,6.1,7.0,15,8.2,0.00034,0.00046,31.0,33.3,8,70,0,.,6.04,0.00,0.00
15min,AgWx,beryljct,423,18DEC2020:08:45:00,31.5,14.5,31.0,30.7,30.2,30.7,29.6,82,83,81,0.471,25.4,26.0,24.6,7.3,7.1,24,13,11.4,0.00052,0.00066,31.0,33.3,9,168,0,.,6.04,0.00,0.00
15min,AgWx,beryljct,423,18DEC2020:09:00:00,32.6,13.41,31.1,30.7,30.8,30.9,30.7,81,82,80,0.473,25.7,25.9,25.4,7.826,7.9,41,10,10.5,0.00049,0.00064,31.0,33.3,8,117,0,.,6.04,0.00,0.00
15min,AgWx,beryljct,423,18DEC2020:09:15:00,33.0,13.36,31.1,30.8,30.7,30.9,30.7,82,83,81,0.484,25.8,26.3,25.6,7.826,8.6,48,7.6,11.8,0.00051,0.00067,31.0,33.3,8,123,0,.,6.04,0.00,0.00
15min,AgWx,beryljct,423,18DEC2020:09:30:00,33.1,13.6,31.3,30.8,30.7,30.9,30.6,82,83,81,0.473,25.8,26.3,25.4,4.297,8.4,43,8.8,11.6,0.00059,0.00075,31.0,33.3,8,162,0,.,6.04,0.00,0.00
15min,AgWx,beryljct,423,18DEC2020:09:45:00,33.4,14.82,32.1,31.9,31.2,32.2,30.7,82,83,79,0.481,26.3,27.0,25.9,10.52,7.9,40,9.4,12.1,0.00089,0.00106,31.1,33.3,9,303,0,.,6.04,0.00,0.00
15min,AgWx,beryljct,423,18DEC2020:10:00:00,34.8,13.88,32.7,32.4,32.4,32.9,31.8,78,81,74,0.460,26.4,27.8,25.1,14.18,10.1,39,9.0,15.0,0.00094,0.00117,31.1,33.3,8,289,0,.,6.04,0.00,0.00
15min,AgWx,beryljct,423,18DEC2020:10:15:00,35.4,13.69,33.2,32.7,32.6,32.8,32.4,75,77,74,0.474,25.7,26.5,25.1,9.16,10.4,46,8.7,14.3,0.00087,0.00113,31.1,33.2,8,228,0,.,6.04,0.00,0.00
15min,AgWx,beryljct,423,18DEC2020:10:30:00,35.7,14.66,33.2,33.3,33.1,33.9,32.5,75,77,72,0.465,25.9,27.2,25.3,12.36,11.3,45,11,15.0,0.00098,0.00127,31.2,33.2,8,274,0,.,6.04,0.00,0.00
15min,AgWx,beryljct,423,18DEC2020:10:45:00,36.2,14.68,35.8,34.3,33.4,34.3,32.7,71,74,69,0.468,25.1,26.0,24.4,10.5,11.3,52,9.3,14.7,0.00118,0.00152,31.4,33.2,8,347,0,.,6.04,0.00,0.00
15min,AgWx,beryljct,423,18DEC2020:11:00:00,37.6,14.63,36.1,35.5,35.0,35.5,34.3,67,71,64,0.453,25.0,26.6,24.2,13,13.8,52,12,17.5,0.00180,0.00226,31.5,33.2,8,569,0,.,6.04,0.00,0.00
15min,AgWx,beryljct,423,18DEC2020:11:15:00,38.7,14.58,36.0,36.3,35.3,36.4,34.5,63,65,61,0.449,24.1,25.4,22.7,14.18,13.7,56,10,18.6,0.00161,0.00210,31.6,33.2,8,464,0,.,6.04,0.00,0.00
15min,AgWx,beryljct,423,18DEC2020:11:30:00,39.8,14.6,35.8,35.6,36.1,36.8,35.4,60,62,58,0.415,23.6,24.9,22.4,15.41,14.3,55,10,20.0,0.00187,0.00243,31.8,33.2,8,533,0,.,6.04,0.00,0.00
15min,AgWx,beryljct,423,18DEC2020:11:45:00,39.8,13.39,35.2,34.9,34.9,35.6,34.6,60,62,58,0.418,22.4,23.3,21.8,10.61,12.7,52,9.2,18.0,0.00104,0.00152,32.1,33.2,8,164,0,.,6.03,0.00,0.00
15min,AgWx,beryljct,423,18DEC2020:12:00:00,39.1,13.5,35.6,35.0,35.0,35.4,34.5,60,62,58,0.408,22.6,23.4,21.6,7.87,11.7,44,11,16.3,0.00106,0.00151,32.3,33.2,8,183,0,.,6.03,0.00,0.00
15min,AgWx,beryljct,423,18DEC2020:12:15:00,38.9,14.65,36.7,35.9,35.5,35.9,35.1,57,60,56,0.415,22.0,23.0,21.3,9.32,13.1,50,9.7,18.1,0.00130,0.00184,32.6,33.3,8,266,0,.,6.03,0.00,0.00
15min,AgWx,beryljct,423,18DEC2020:12:30:00,39.4,14.6,37.1,36.8,36.4,37.5,35.8,58,59,56,0.414,23.1,24.3,22.1,13.96,11.4,64,12,15.3,0.00191,0.00245,32.8,33.3,8,534,0,.,6.03,0.00,0.00
15min,AgWx,beryljct,423,18DEC2020:12:45:00,40.6,14.58,36.4,36.3,37.3,38.5,36.3,54,57,52,0.378,22.4,23.5,20.4,13.09,13.8,62,12,19.2,0.00223,0.00288,33.0,33.3,8,604,0,.,6.03,0.00,0.00
15min,AgWx,beryljct,423,18DEC2020:13:00:00,40.7,14.58,36.2,36.1,36.5,37.8,35.6,53,54,51,0.370,20.8,22.3,19.8,13.57,14.2,44,9.4,18.9,0.00139,0.00202,33.2,33.3,8,255,0,.,6.03,0.00,0.00
15min,AgWx,beryljct,423,18DEC2020:13:15:00,40.3,14.18,37.7,37.2,36.6,37.9,35.9,52,53,50,0.380,20.4,21.6,19.5,14.75,14.0,48,11,18.0,0.00164,0.00229,33.5,33.3,8,386,0,.,6.03,0.00,0.00
15min,AgWx,beryljct,423,18DEC2020:13:30:00,40.2,14.2,36.8,36.1,36.2,37.5,35.4,52,54,50,0.383,20.4,21.2,19.6,9.95,14.4,54,9.1,20.4,0.00143,0.00207,33.7,33.4,9,286,0,.,6.03,0.00,0.00
15min,AgWx,beryljct,423,18DEC2020:13:45:00,40.1,14.17,37.8,37.0,36.9,38.1,36.0,50,53,49,0.368,20.1,21.7,19.1,12.89,13.2,56,11,18.2,0.00187,0.00253,33.9,33.4,8,476,0,.,6.03,0.00,0.00
15min,AgWx,beryljct,423,18DEC2020:14:00:00,40.7,14.19,37.0,37.2,37.3,38.5,36.5,50,52,47,0.376,20.2,21.8,19.3,16.09,13.0,57,9.6,19.3,0.00169,0.00235,34.1,33.4,8,399,0,.,6.02,0.00,0.00
15min,AgWx,beryljct,423,18DEC2020:14:15:00,40.6,14.15,37.8,37.4,36.9,37.8,35.8,51,53,49,0.368,20.2,21.2,19.7,13.83,13.2,55,9.7,18.1,0.00160,0.00225,34.3,33.5,8,381,0,.,6.02,0.00,0.00
15min,AgWx,beryljct,423,18DEC2020:14:30:00,41.0,14.16,37.5,37.6,37.2,38.1,36.3,50,51,48,0.375,20.1,21.4,19.3,12.82,11.8,58,11,17.2,0.00155,0.00217,34.5,33.5,8,358,0,.,6.02,0.00,0.00
15min,AgWx,beryljct,423,18DEC2020:14:45:00,41.4,14.13,38.2,37.7,37.7,38.2,37.0,49,50,48,0.375,20.4,21.1,19.8,12.17,12.3,52,12,19.2,0.00167,0.00232,34.7,33.6,8,386,0,.,6.02,0.00,0.00
15min,AgWx,beryljct,423,18DEC2020:15:00:00,41.8,14.12,37.2,37.7,37.8,38.2,37.4,48,49,47,0.364,19.9,20.4,19.3,11.03,13.2,48,13,18.4,0.00160,0.00229,34.8,33.6,8,353,0,.,6.02,0.00,0.00
15min,AgWx,beryljct,423,18DEC2020:15:15:00,42.0,14.12,37.8,37.8,37.6,37.9,37.3,48,49,46,0.357,19.5,20.2,18.9,16.02,12.9,51,11,17.8,0.00150,0.00217,35.0,33.6,8,321,0,.,6.02,0.00,0.00
15min,AgWx,beryljct,423,18DEC2020:15:30:00,42.1,14.1,37.2,37.5,37.8,38.3,37.5,47,49,46,0.372,19.6,20.7,18.9,13.31,12.0,52,12,16.0,0.00138,0.00203,35.1,33.7,8,284,0,.,6.01,0.00,0.00
15min,AgWx,beryljct,423,18DEC2020:15:45:00,42.0,14.1,37.5,37.2,37.4,37.7,37.0,49,50,49,0.368,20.1,20.6,19.6,13.85,12.2,65,11,16.3,0.00123,0.00185,35.2,33.8,8,249,0,.,6.01,0.00,0.00
15min,AgWx,beryljct,423,18DEC2020:16:00:00,41.8,14.1,36.8,36.6,36.8,37.3,36.6,49,51,48,0.362,19.7,20.1,19.1,13.42,12.7,63,9.4,16.7,0.00111,0.00173,35.3,33.8,8,211,0,.,6.01,0.00,0.00
15min,AgWx,beryljct,423,18DEC2020:16:15:00,41.3,14.09,36.5,36.2,36.4,36.7,36.1,51,53,49,0.379,19.9,20.5,19.4,11.95,11.2,67,9.5,15.0,0.00092,0.00147,35.4,33.9,8,174,0,.,6.01,0.00,0.00
15min,AgWx,beryljct,423,18DEC2020:16:30:00,40.8,14.16,35.6,35.5,35.9,36.2,35.4,52,53,51,0.371,20.2,20.5,19.9,11.93,10.8,68,7.4,14.4,0.00035,0.00040,35.5,33.9,8,137,0,.,6.01,0.00,0.00
15min,AgWx,beryljct,423,18DEC2020:16:45:00,40.0,14.19,34.9,34.9,35.1,35.5,34.8,54,54,53,0.372,20.1,20.2,19.9,7.278,10.1,65,8.5,13.3,0.00030,0.00035,35.5,34.0,8,101,0,.,6.01,0.00,0.00
15min,AgWx,beryljct,423,18DEC2020:17:00:00,38.9,13.2,33.2,33.6,34.2,34.8,33.6,55,56,54,0.364,19.7,19.9,19.5,6.84,8.4,64,7.3,11.8,0.00021,0.00026,35.5,34.1,8,45,0,.,6.01,0.00,0.00
15min,AgWx,beryljct,423,18DEC2020:17:15:00,37.0,13.07,32.3,32.1,32.7,33.6,32.0,57,59,56,0.358,19.3,19.6,19.0,6.752,6.9,61,7.5,9.9,0.00013,0.00016,35.5,34.2,8,10,0,.,6.01,0.00,0.00
15min,AgWx,beryljct,423,18DEC2020:17:30:00,35.1,13.02,31.0,31.0,31.4,32.1,30.9,60,61,58,0.357,19.1,19.4,18.9,6.204,6.9,57,6.5,10.2,0.00010,0.00014,35.4,34.2,9,4,0,.,6.02,0.00,0.00
15min,AgWx,beryljct,423,18DEC2020:17:45:00,33.4,12.99,28.8,28.8,29.7,30.9,28.8,63,65,61,0.348,18.7,19.1,18.3,4.932,5.6,50,6.9,7.1,0.00006,0.00008,35.3,34.3,9,1,0,.,6.02,0.00,0.00
15min,AgWx,beryljct,423,18DEC2020:18:00:00,31.7,12.97,28.9,28.7,28.2,28.8,27.7,67,68,65,0.358,18.6,19.3,18.0,7.607,5.9,44,5.9,9.5,0.00004,0.00006,35.1,34.4,8,0,0,.,6.02,0.00,0.00
15min,AgWx,beryljct,423,18DEC2020:18:15:00,30.8,12.96,27.8,27.8,28.6,29.1,27.8,67,68,66,0.351,19.0,19.4,18.7,6.511,8.1,41,10,10.3,0.00008,0.00010,35.0,34.4,9,0,0,.,6.02,0.00,0.00
15min,AgWx,beryljct,423,18DEC2020:18:30:00,29.9,12.94,28.3,27.6,27.5,27.8,27.1,69,70,68,0.355,18.7,19.0,18.4,10.74,8.0,29,5.8,10.7,0.00006,0.00008,34.8,34.5,9,0,0,.,6.02,0.00,0.00
15min,AgWx,beryljct,423,18DEC2020:18:45:00,29.5,12.93,28.6,28.3,27.8,28.4,27.4,70,70,69,0.363,19.1,19.6,18.8,11.51,10.5,35,6.2,13.7,0.00009,0.00011,34.6,34.5,9,0,0,.,6.02,0.00,0.00
15min,AgWx,beryljct,423,18DEC2020:19:00:00,29.3,12.92,28.3,28.0,28.2,28.5,28.0,69,69,69,0.360,19.4,19.6,19.2,7.936,10.0,36,6.1,12.2,0.00009,0.00011,34.4,34.5,8,0,0,.,6.02,0.00,0.00
15min,AgWx,beryljct,423,18DEC2020:19:15:00,29.1,12.92,25.2,25.3,27.6,28.4,25.3,70,72,69,0.335,19.1,19.7,17.6,2.894,6.9,57,44,11.2,0.00005,0.00007,34.1,34.6,9,0,0,.,6.02,0.00,0.00
15min,AgWx,beryljct,423,18DEC2020:19:30:00,28.1,12.9,24.8,24.7,24.7,25.4,23.9,75,76,72,0.337,17.9,18.6,16.7,5.459,3.1,172,20,5.6,-0.00005,-0.00005,34.0,34.6,8,0,0,.,6.02,0.00,0.00
15min,AgWx,beryljct,423,18DEC2020:19:45:00,27.1,12.88,25.4,25.1,25.2,25.7,24.5,77,78,75,0.355,18.9,19.5,17.7,2.565,3.4,152,12,5.7,-0.00005,-0.00005,33.7,34.7,9,0,0,.,6.02,0.00,0.00
15min,AgWx,beryljct,423,18DEC2020:20:00:00,26.2,12.88,25.3,24.7,24.7,25.2,24.0,78,79,77,0.358,18.8,19.3,18.0,1.03,1.2,183,17,3.1,-0.00013,-0.00017,33.5,34.7,8,0,0,.,6.02,0.00,0.00
15min,AgWx,beryljct,423,18DEC2020:20:15:00,25.4,12.88,25.8,25.4,25.2,25.5,24.7,78,79,77,0.360,19.3,19.6,18.8,1.513,0.8,178,33,1.6,-0.00015,-0.00021,33.3,34.7,9,0,0,.,6.02,0.00,0.00
15min,AgWx,beryljct,423,18DEC2020:20:30:00,24.8,12.88,24.1,23.4,24.0,25.7,21.0,79,84,76,0.355,18.3,19.7,14.8,0,0.8,210,3.5,1.6,-0.00015,-0.00020,33.2,34.7,9,0,0,.,6.02,0.00,0.00
15min,AgWx,beryljct,423,18DEC2020:20:45:00,24.0,12.85,23.0,23.8,23.6,24.0,23.0,82,83,80,0.353,18.8,19.4,17.6,2.148,1.5,205,1.8,2.3,-0.00012,-0.00015,32.9,34.7,9,0,0,.,6.03,0.00,0.00
15min,AgWx,beryljct,423,18DEC2020:21:00:00,23.5,12.85,24.8,24.3,24.2,24.8,23.5,80,82,79,0.349,19.0,19.7,18.3,2.039,2.1,281,49,3.4,-0.00009,-0.00011,32.7,34.7,9,0,0,.,6.03,0.00,0.00
15min,AgWx,beryljct,423,18DEC2020:21:15:00,23.3,12.85,24.8,23.7,23.7,24.3,23.0,80,82,78,0.352,18.5,19.3,17.4,4.034,3.7,306,7.4,4.9,-0.00005,-0.00005,32.5,34.7,8,0,0,.,6.03,0.00,0.00
15min,AgWx,beryljct,423,18DEC2020:21:30:00,23.0,12.84,21.1,20.2,21.6,24.3,19.7,82,85,77,0.319,17.0,19.5,15.0,4.516,4.7,309,12,6.2,-0.00003,-0.00003,32.2,34.7,9,0,0,.,6.03,0.00,0.00
15min,AgWx,beryljct,423,18DEC2020:21:45:00,22.5,12.83,23.5,21.1,20.8,22.9,19.0,86,90,83,0.329,17.2,20.2,15.2,4.713,4.1,289,5.2,5.7,-0.00005,-0.00005,32.0,34.7,8,0,0,.,6.03,0.00,0.00
15min,AgWx,beryljct,423,18DEC2020:22:00:00,21.8,12.82,18.3,17.8,19.0,21.5,17.0,85,88,83,0.295,15.3,17.9,13.2,2.653,2.4,305,20,4.6,-0.00008,-0.00009,31.8,34.7,8,0,0,.,6.03,0.00,0.00
15min,AgWx,beryljct,423,18DEC2020:22:15:00,21.1,12.81,19.3,18.8,19.8,21.4,17.7,87,90,83,0.294,16.4,18.2,14.2,4.297,3.9,300,6.9,4.8,-0.00005,-0.00006,31.5,34.7,8,0,0,.,6.03,0.00,0.00
15min,AgWx,beryljct,423,18DEC2020:22:30:00,20.6,12.8,18.3,18.4,19.6,20.7,18.4,86,88,84,0.298,16.0,17.4,14.6,3.31,4.6,304,7.6,5.7,-0.00004,-0.00004,31.3,34.7,8,0,0,.,6.03,0.00,0.00
15min,AgWx,beryljct,423,18DEC2020:22:45:00,20.2,12.8,17.5,17.1,18.6,19.7,17.1,87,89,85,0.280,15.3,16.9,13.4,2.236,2.9,327,15,4.2,-0.00007,-0.00008,31.1,34.6,9,0,0,.,6.03,0.00,0.00
15min,AgWx,beryljct,423,18DEC2020:23:00:00,19.6,12.8,20.8,18.5,16.6,18.5,15.1,88,91,85,0.313,13.6,16.0,11.8,3.639,2.9,324,14,4.3,-0.00007,-0.00008,30.9,34.6,9,0,0,.,6.03,0.00,0.00
15min,AgWx,beryljct,423,18DEC2020:23:15:00,19.4,12.78,19.1,18.3,19.7,20.7,17.6,86,91,82,0.296,16.3,17.5,13.0,0,2.5,341,20,4.4,-0.00008,-0.00010,30.7,34.6,9,0,0,.,6.03,0.00,0.00
15min,AgWx,beryljct,423,18DEC2020:23:30:00,19.0,12.78,13.7,12.3,15.3,18.5,11.5,86,88,84,0.230,11.9,15.1,7.8,2.455,1.9,152,36,3.9,-0.00008,-0.00010,30.5,34.5,8,0,0,.,6.04,0.00,0.00
15min,AgWx,beryljct,423,18DEC2020:23:45:00,18.0,12.78,13.5,13.1,13.3,14.6,12.2,89,91,87,0.248,10.7,12.3,9.3,2.609,1.7,205,6.4,3.2,-0.00009,-0.00011,30.2,34.5,8,0,0,.,6.04,0.00,0.00
15min,AgWx,bigpiney,439,18DEC2020:00:00:00,14.2,12.54,14.5,13.9,12.6,14.0,11.7,88,89,86,0.253,9.8,11.4,8.4,3.771,4.7,250,7.4,6.7,0.00003,0.00003,30.4,32.5,43,0,0,0.0,0.01,0.00,0.00
15min,AgWx,bigpiney,439,18DEC2020:00:15:00,14.0,12.52,10.7,11.1,13.1,14.0,11.1,87,89,85,0.214,9.9,11.1,7.5,5.48,3.6,222,15,5.8,0.00003,0.00003,30.4,32.5,43,0,0,0.0,0.01,0.00,0.00
15min,AgWx,bigpiney,439,18DEC2020:00:30:00,13.8,12.51,13.6,12.5,10.9,12.5,10.2,87,89,85,0.238,7.8,10.0,6.7,7.958,6.8,224,11,9.7,0.00003,0.00004,30.4,32.5,43,0,0,0.0,0.01,0.00,0.00
15min,AgWx,bigpiney,439,18DEC2020:00:45:00,13.7,12.5,11.6,11.4,13.0,14.6,11.4,87,90,85,0.219,10.0,12.1,7.9,7.234,7.2,236,7.7,8.5,0.00003,0.00004,30.3,32.6,43,0,0,0.0,0.01,0.00,0.00
15min,AgWx,bigpiney,439,18DEC2020:01:00:00,13.7,12.49,12.1,11.5,12.1,12.6,11.3,87,88,86,0.220,9.0,9.7,7.9,4.932,5.4,247,36,7.8,0.00003,0.00004,30.3,32.6,43,0,0,0.0,0.01,0.00,0.00
15min,AgWx,bigpiney,439,18DEC2020:01:15:00,13.6,12.49,14.9,12.2,12.8,15.9,9.5,87,91,80,0.236,9.6,13.0,4.8,1.513,3.4,166,91,6.5,0.00003,0.00003,30.3,32.6,43,0,0,0.0,0.01,0.00,0.00
15min,AgWx,bigpiney,439,18DEC2020:01:30:00,13.6,12.48,10.3,10.9,12.4,13.6,10.9,87,90,84,0.211,9.1,10.8,7.1,4.757,3.7,156,47,6.2,0.00003,0.00003,30.3,32.6,43,0,0,0.0,0.01,0.00,0.00
15min,AgWx,bigpiney,439,18DEC2020:01:45:00,13.4,12.46,9.3,8.8,9.3,10.8,8.8,87,89,84,0.201,6.2,7.0,5.9,0,1.8,77,23,6.3,0.00002,0.00002,30.3,32.5,43,0,0,0.0,0.01,0.00,0.00
15min,AgWx,bigpiney,439,18DEC2020:02:00:00,12.8,12.44,10.7,9.7,9.2,9.7,8.8,90,91,89,0.215,6.7,7.6,6.1,0.614,0.2,223,11,2.0,0.00000,0.00001,30.3,32.5,43,0,0,0.0,0.01,0.00,0.00
15min,AgWx,bigpiney,439,18DEC2020:02:15:00,12.1,12.45,15.4,14.0,11.2,14.0,9.3,91,93,89,0.259,9.1,11.7,7.0,2.477,2.0,225,34,4.5,0.00001,0.00002,30.3,32.5,43,0,0,0.0,0.01,0.00,0.00
15min,AgWx,bigpiney,439,18DEC2020:02:30:00,11.7,12.44,11.2,9.0,10.6,15.7,6.2,86,91,81,0.207,7.3,13.0,2.5,2.324,2.9,19,76,5.9,0.00002,0.00003,30.3,32.5,43,0,0,0.0,0.01,0.00,0.00
15min,AgWx,bigpiney,439,18DEC2020:02:45:00,11.1,12.43,7.3,9.1,10.7,13.0,9.1,88,92,85,0.203,8.0,10.7,6.3,0.965,3.7,31,59,4.9,0.00002,0.00003,30.2,32.5,43,0,0,0.0,0.01,0.00,0.00
15min,AgWx,bigpiney,439,18DEC2020:03:00:00,10.7,12.43,16.0,14.5,10.3,14.5,7.6,90,92,87,0.263,7.9,12.0,4.6,8.13,2.5,288,19,8.1,0.00002,0.00002,30.2,32.5,43,0,0,0.0,0.01,0.00,0.00
15min,AgWx,bigpiney,439,18DEC2020:03:15:00,11.0,12.42,20.8,20.2,18.2,20.3,14.6,86,90,83,0.311,14.8,16.1,12.1,10.52,9.2,288,6.2,11.5,0.00005,0.00006,30.2,32.5,43,0,0,0.0,0.01,0.00,0.00
15min,AgWx,bigpiney,439,18DEC2020:03:30:00,12.7,12.42,20.3,20.0,20.2,20.4,20.0,81,83,81,0.299,15.4,15.9,15.0,9.25,10.1,291,6.8,11.5,0.00007,0.00008,30.2,32.5,43,0,0,0.0,0.01,0.00,0.00
15min,AgWx,bigpiney,439,18DEC2020:03:45:00,14.2,12.41,18.6,18.4,19.2,20.1,18.4,81,82,80,0.281,14.2,15.2,13.6,6.905,7.6,304,5.9,10.6,0.00007,0.00008,30.2,32.5,43,0,0,0.0,0.01,0.00,0.00
15min,AgWx,bigpiney,439,18DEC2020:04:00:00,15.0,12.41,18.6,18.2,17.5,18.4,17.2,83,84,81,0.288,13.2,14.1,12.9,6.708,6.1,298,8.6,8.1,0.00005,0.00006,30.1,32.4,43,0,0,0.0,0.01,0.00,0.00
15min,AgWx,bigpiney,439,18DEC2020:04:15:00,15.4,12.41,19.1,18.4,18.2,18.5,17.8,82,84,81,0.281,13.7,14.1,13.3,7.717,6.8,290,5.4,8.4,0.00006,0.00007,30.1,32.5,43,0,0,0.0,0.01,0.00,0.00
15min,AgWx,bigpiney,439,18DEC2020:04:30:00,15.8,12.41,19.0,18.9,18.9,19.2,18.4,80,81,79,0.283,13.7,14.1,13.5,8.07,8.2,297,5.6,9.7,0.00007,0.00008,30.1,32.5,43,0,0,0.0,0.01,0.00,0.00
15min,AgWx,bigpiney,439,18DEC2020:04:45:00,16.2,12.4,19.8,19.5,18.9,19.5,18.6,79,80,79,0.286,13.6,14.0,13.3,8.51,9.2,295,5.9,11.0,0.00007,0.00009,30.1,32.5,43,0,0,0.0,0.01,0.00,0.00
15min,AgWx,bigpiney,439,18DEC2020:05:00:00,16.6,12.4,20.0,19.6,19.5,19.8,19.4,78,79,78,0.289,13.9,14.2,13.7,9.27,9.4,289,5.9,11.5,0.00008,0.00009,30.1,32.5,43,0,0,0.0,0.01,0.00,0.00
15min,AgWx,bigpiney,439,18DEC2020:05:15:00,17.0,12.4,21.2,20.9,20.3,21.1,19.6,79,79,77,0.298,14.7,15.2,14.1,11.44,11.4,295,6.7,15.3,0.00009,0.00010,30.1,32.5,43,0,0,0.0,0.01,0.00,0.00
15min,AgWx,bigpiney,439,18DEC2020:05:30:00,17.6,12.39,20.1,19.6,20.5,21.1,19.6,76,77,75,0.276,14.2,15.1,13.1,10.81,11.7,294,6.8,14.2,0.00010,0.00011,30.1,32.5,43,0,0,0.0,0.01,0.00,0.00
15min,AgWx,bigpiney,439,18DEC2020:05:45:00,17.8,12.4,20.3,19.5,19.3,19.7,19.0,75,76,74,0.276,12.8,13.2,12.5,10.7,9.7,292,7.4,12.2,0.00009,0.00010,30.1,32.4,43,0,0,0.0,0.01,0.00,0.00
15min,AgWx,bigpiney,439,18DEC2020:06:00:00,18.0,12.4,21.4,21.1,20.7,21.2,19.5,74,76,73,0.284,13.8,14.1,13.2,10.08,11.6,283,7.5,14.8,0.00010,0.00012,30.0,32.5,43,0,0,0.0,0.01,0.00,0.00
15min,AgWx,bigpiney,439,18DEC2020:06:15:00,18.3,12.4,20.5,20.1,20.6,21.1,20.1,73,74,73,0.275,13.5,13.9,13.1,9.16,9.7,275,7.9,14.8,0.00010,0.00012,30.0,32.5,43,0,0,0.0,0.01,0.00,0.00
15min,AgWx,bigpiney,439,18DEC2020:06:30:00,18.4,12.4,20.6,19.6,19.8,20.2,19.5,74,74,74,0.269,12.9,13.2,12.5,9.95,8.8,281,6.1,11.3,0.00009,0.00011,30.0,32.5,43,0,0,0.0,0.01,0.00,0.00
15min,AgWx,bigpiney,439,18DEC2020:06:45:00,18.3,12.4,19.2,19.0,19.2,19.9,18.9,73,74,73,0.259,12.1,12.8,11.7,8.26,8.1,287,5.0,10.0,0.00009,0.00011,30.0,32.5,43,0,0,0.0,0.01,0.00,0.00
15min,AgWx,bigpiney,439,18DEC2020:07:00:00,18.0,12.38,19.0,18.6,18.9,19.1,18.5,72,73,71,0.248,11.4,11.7,10.7,7.541,7.7,299,6.8,9.1,0.00009,0.00011,30.0,32.5,43,0,0,0.0,0.01,0.00,0.00
15min,AgWx,bigpiney,439,18DEC2020:07:15:00,17.6,12.39,17.8,17.3,17.7,18.6,17.2,72,72,71,0.239,10.1,10.8,9.7,7.212,6.0,302,5.3,7.8,0.00008,0.00010,30.0,32.5,43,0,0,0.0,0.01,0.00,0.00
15min,AgWx,bigpiney,439,18DEC2020:07:30:00,16.9,12.4,16.8,15.9,15.6,17.3,14.2,73,75,71,0.231,8.6,10.0,6.8,6.445,5.9,311,11,8.2,0.00007,0.00009,30.0,32.4,43,0,0,0.0,0.01,0.00,0.00
15min,AgWx,bigpiney,439,18DEC2020:07:45:00,16.1,12.41,10.4,10.7,14.0,16.4,10.7,73,75,72,0.186,7.1,9.4,4.4,5.239,5.4,330,13,7.2,0.00007,0.00008,30.0,32.5,43,2,0,0.0,0.01,0.00,0.00
15min,AgWx,bigpiney,439,18DEC2020:08:00:00,15.0,12.89,11.6,10.9,10.8,11.7,9.8,77,79,75,0.193,5.1,6.1,3.9,5.305,5.5,323,7.1,6.9,0.00006,0.00007,30.0,32.5,43,15,0,0.0,0.01,0.00,0.00
15min,AgWx,bigpiney,439,18DEC2020:08:15:00,14.2,13.96,10.0,9.2,10.6,11.5,8.6,77,79,75,0.182,4.9,5.8,2.5,1.82,2.6,321,61,5.0,-0.00009,-0.00006,30.0,32.5,43,35,0,0.0,0.01,0.00,0.00